Location: Newark
(54.6833°N, 25.2833°E)
Time: 02:09:57
(UTC+00:00)

Tiros 1 despin weight - Pass Details

Date: 17 November 2019
Orbit: 594 x 642 km, 48.2° (Epoch: 13 December)

Event Time Altitude Azimuth Distance (km) Brightness Sun altitude
Rises 17:07:22 0° 270° (W) 2,855 ? -24.6°
Reaches altitude 10° 17:10:03 10° 255° (WSW) 1,957 ? -24.9°
Maximum altitude 17:13:29 22° 205° (SSW) 1,357 ? -25.4°
Enters shadow 17:14:22 20° 188° (S) 1,407 ? -25.6°
Drops below altitude 10° 17:16:56 10° 155° (SSE) 1,976 - -25.9°
Sets 17:19:40 0° 140° (SE) 2,889 - -26.3°
